STARLINK-32176, 60340

Orbit data source: Space-Track

STARLINK-32176, 60340 is a payload satellite owned by SpaceX/Seattle (US) in LEO that was launched on Fri, 02 Aug 2024 UTC via an FALCON 9 launch vehicle from the Air Force Eastern Test Range (AFETR). Payload-class satellites include a variety of spacecraft equipped with specific instruments for various scientific and technological missions. These include communications satellites like Starlink; space stations such as the ISS; scientific satellites like the Hubble; Earth observation satellites from companies like Planet Labs, Umbra, and HawkEye 360; GPS; miniature CubeSats for education and research; and military/defense satellites.

Loading next visibility...
Identifier
60340, 2024-136M
Orbit
LEO
Last TLE update
22 hours ago
Origin
Manufacturer
SpaceX/Seattle
Mission
Operational Commercial Communications
Bus & Motor
STARLINK V2M, Unknown motor
Mass
730 kg wet, ~700 kg dry
Launch date (UTC)
2024-08-02 (11 months ago)
Launch vehicle
FALCON 9
Launch site
Air Force Eastern Test Range (AFETR)
Object type
Payload
Rocket body
Debris
Shape & HBR
Box + 2 Pan, 29 m
Radar Cross Section
33.884 m², Large (>1 m²)

Expand to show TLE details & history

TLE from 22 hours ago
0 STARLINK-32176
1 60340U 24136M   25191.49616065 -.00000268  00000-0  30941-5 0  9993
2 60340  53.1607 120.6325 0001238  86.5076 273.6066 15.30194637 53751
Epoch: 2025-07-10T11:54Z
TLE epoch observation values (Epoch: 2025-07-10T11:54:28.28Z)
Latitude
-0.00003°
Longitude
13.35303°
Altitude
476.078 km
Speed
7.629 km/s
True Right ascension
08h 02m 31s
True Declination
0° 00' 00"
Sunlit
Object was in daylight at epoch
Visualization orbit readout
Latitude
-4.35362°
Longitude
5.8576°
Altitude
476.867 km
Speed
7.628 km/s
Apparent Right ascension
08h 36m 46s
Apparent Declination
-22° 28' 44"
Sunlit
Object is in daylight
Visualization observer readout
Local Sidereal Time
22:07:34
Azimuth
54.567° ENE
Elevation
-64.046°
Doppler factor
1
Orbital elements
Apogee altitude
476.336 km
Perigee altitude
474.639 km
Semi-major axis
6,853.624 km
Eccentricity
0.00012
Inclination
53.1607°
RAAN
120.6325°
Arg. of periapsis
86.5076°
True anomaly
Unknown
Mean anomaly
273.6066°
Eccentric anomaly
Unknown
Mean motion
3.82528 °/min
Orbital period
94.11 mins
BSTAR
0.0000030941
Loading maneuver chart data...
Loading SW <> Apogee altitude chart data...
Loading historical data...
Loading historical data...
Loading historical data...
Loading historical data...
Loading historical data...
Loading historical data...
Loading historical data...

STARLINK-32176 Visibility forecast

Observer location: undefined°, undefined°

Span
Click to sort rows by Start time (UTC) header in descending order
Start Az.
Max El. time (UTC)
Max El. Az.
Max El.
End time (UTC)
End Az.
6 mins2025-07-11 20:58:48.041Z189.765° SSW2025-07-11 21:01:48.041Z127.211° SE25.672°2025-07-11 21:04:48.041Z71.02° E
5 mins2025-07-11 22:37:48.041Z278.138° WNW2025-07-11 22:39:48.041Z339.752° N29.387°2025-07-11 22:42:48.041Z35.193° NE
4 mins2025-07-12 03:34:48.041Z346.344° N2025-07-12 03:36:48.041Z42.109° NE25.849°2025-07-12 03:38:48.041Z84.412° E
4 mins2025-07-12 05:12:48.041Z275.664° WNW2025-07-12 05:14:48.041Z209.467° SW29.87°2025-07-12 05:16:48.041Z166.4° S
|